W7KKE-3 Weather Reports


time (UTC)temp
C
wind
direction
speed
KPH
gust
KPH
rain 1hr
cm
rain 24hr
cm
rain mn
cm
humidity
%
barometer
mb
20260506031647 13 331 1.6 8.0 0.00 0.05 0.03 81 1012.8
20260506031150 13 329 4.8 8.0 0.00 0.05 0.03 81 1012.8
20260506030648 14 323 3.2 6.4 0.00 0.05 0.03 81 1012.8
20260506030148 14 338 3.2 11.3 0.00 0.05 0.03 81 1012.7
20260506025648 14 320 4.8 11.3 0.00 0.05 0.03 81 1012.7
20260506025148 14 323 4.8 11.3 0.00 0.05 0.03 80 1012.7
20260506024648 14 323 3.2 9.7 0.00 0.05 0.03 80 1012.6
20260506024150 14 313 6.4 8.0 0.00 0.05 0.03 80 1012.7
20260506023648 14 320 4.8 11.3 0.00 0.05 0.03 81 1012.7
20260506023148 14 326 3.2 11.3 0.00 0.05 0.03 81 1012.6
20260506022650 14 351 3.2 11.3 0.00 0.05 0.03 81 1012.6
20260506022147 14 329 6.4 11.3 0.00 0.05 0.03 81 1012.5
20260506021647 14 324 6.4 11.3 0.00 0.05 0.03 81 1012.6
20260506021149 14 336 4.8 11.3 0.00 0.05 0.03 81 1012.6
20260506020648 14 322 4.8 12.9 0.00 0.05 0.03 81 1012.6
20260506020148 14 338 6.4 12.9 0.00 0.05 0.03 81 1012.6
20260506015649 14 320 8.0 12.9 0.00 0.05 0.03 81 1012.6
20260506015148 14 329 6.4 12.9 0.00 0.05 0.03 81 1012.7
20260506014648 14 334 6.4 12.9 0.00 0.05 0.03 81 1012.6
20260506014220 14 319 8.0 12.9 0.00 0.05 0.03 81 1012.6
20260506014149 14 319 8.0 12.9 0.00 0.05 0.03 81 1012.6
20260506013647 14 334 8.0 12.9 0.00 0.05 0.03 81 1012.6
20260506013147 15 316 9.7 12.9 0.00 0.05 0.03 81 1012.6
20260506012649 15 324 9.7 12.9 0.00 0.05 0.03 81 1012.6
20260506012147 15 329 8.0 12.9 0.00 0.05 0.03 81 1012.6
20260506011647 15 351 8.0 12.9 0.00 0.05 0.03 81 1012.6
20260506011149 15 338 8.0 12.9 0.00 0.05 0.03 81 1012.6
20260506010647 15 331 8.0 11.3 0.00 0.05 0.03 81 1012.6
20260506005649 15 333 9.7 12.9 0.00 0.05 0.03 80 1012.6
20260506005149 15 322 8.0 12.9 0.00 0.05 0.03 81 1012.6
20260506004149 15 331 8.0 12.9 0.00 0.05 0.03 80 1012.6
20260506003647 15 316 6.4 12.9 0.00 0.05 0.03 80 1012.7
20260506003148 15 298 6.4 12.9 0.00 0.05 0.03 80 1012.7
20260506002648 15 296 6.4 12.9 0.00 0.05 0.03 80 1012.7
20260506002147 15 291 9.7 12.9 0.00 0.05 0.03 80 1012.6
20260506001648 15 303 8.0 12.9 0.00 0.05 0.03 80 1012.6
20260506001149 15 320 6.4 9.7 0.00 0.05 0.03 80 1012.6
20260506000647 15 310 4.8 9.7 0.00 0.05 0.03 80 1012.6
20260506000148 15 301 6.4 12.9 0.00 0.05 0.03 80 1012.7
20260505235648 15 302 6.4 12.9 0.00 0.05 0.03 80 1012.7
20260505235147 15 306 8.0 12.9 0.00 0.05 0.03 80 1012.7
20260505234647 15 295 9.7 11.3 0.00 0.05 0.03 80 1012.7
20260505233647 15 308 8.0 12.9 0.00 0.05 0.03 80 1012.8
20260505233147 15 333 6.4 12.9 0.00 0.05 0.03 80 1012.8
20260505232648 15 327 8.0 12.9 0.00 0.05 0.03 80 1012.9
20260505232147 16 343 8.0 11.3 0.00 0.05 0.03 80 1012.8
20260505231647 16 343 8.0 12.9 0.00 0.05 0.03 80 1012.9
20260505231149 16 330 8.0 12.9 0.00 0.05 0.03 80 1012.9
20260505230647 16 299 6.4 12.9 0.00 0.05 0.03 80 1012.9
20260505230147 16 298 6.4 11.3 0.00 0.05 0.03 80 1013.0
20260505225648 16 301 6.4 11.3 0.00 0.05 0.03 80 1013.0
20260505225147 16 302 6.4 11.3 0.00 0.05 0.03 80 1013.0
20260505224647 16 316 6.4 11.3 0.00 0.05 0.03 80 1013.1
20260505224149 16 303 4.8 11.3 0.00 0.05 0.03 80 1013.1
20260505223648 16 281 8.0 11.3 0.00 0.05 0.03 80 1013.1
20260505223147 16 281 4.8 9.7 0.00 0.05 0.03 80 1013.1
20260505222648 16 294 8.0 9.7 0.00 0.05 0.03 80 1013.1
20260505222147 16 275 6.4 11.3 0.00 0.05 0.03 80 1013.1
20260505221647 16 306 6.4 11.3 0.00 0.05 0.03 80 1013.0
20260505221149 16 289 4.8 11.3 0.00 0.05 0.03 80 1013.0
20260505220147 16 298 8.0 11.3 0.00 0.05 0.03 80 1013.1
20260505215648 16 295 6.4 11.3 0.00 0.05 0.03 80 1013.1
20260505215147 15 288 8.0 9.7 0.00 0.05 0.03 80 1013.2
20260505214647 16 292 4.8 9.7 0.00 0.05 0.03 80 1013.2
20260505214150 15 316 4.8 9.7 0.00 0.05 0.03 81 1013.1
20260505213647 15 288 8.0 9.7 0.00 0.05 0.03 81 1013.2
20260505213148 15 310 6.4 8.0 0.00 0.05 0.03 81 1013.2
20260505212649 15 295 4.8 6.4 0.00 0.05 0.03 80 1013.3
20260505212147 15 303 4.8 8.0 0.00 0.05 0.03 79 1013.2
20260505211647 15 288 4.8 8.0 0.00 0.05 0.03 80 1013.2
20260505211150 15 294 1.6 8.0 0.00 0.05 0.03 80 1013.2
20260505210647 15 302 4.8 9.7 0.00 0.05 0.03 81 1013.2
20260505210147 15 298 6.4 9.7 0.00 0.05 0.03 81 1013.3
20260505205648 15 288 6.4 9.7 0.00 0.05 0.03 81 1013.2
20260505205147 15 280 6.4 8.0 0.00 0.05 0.03 81 1013.2
20260505204647 15 282 4.8 6.4 0.00 0.05 0.03 82 1013.3
20260505204149 15 280 4.8 6.4 0.00 0.05 0.03 81 1013.3
20260505203647 15 282 3.2 4.8 0.00 0.05 0.03 81 1013.3
20260505203147 15 296 1.6 8.0 0.00 0.05 0.03 81 1013.4
20260505202648 15 299 4.8 8.0 0.00 0.05 0.03 81 1013.3
20260505202147 15 277 1.6 8.0 0.00 0.05 0.03 81 1013.3
20260505201647 15 303 0.0 6.4 0.00 0.05 0.03 81 1013.3
20260505201149 15 309 1.6 4.8 0.00 0.05 0.03 81 1013.3
20260505200648 15 263 0.0 4.8 0.00 0.05 0.03 81 1013.3
20260505200148 15 267 1.6 4.8 0.00 0.05 0.03 81 1013.3
20260505195648 15 235 1.6 6.4 0.00 0.05 0.03 82 1013.3
20260505195148 15 277 1.6 6.4 0.00 0.05 0.03 82 1013.3
20260505194648 14 268 1.6 6.4 0.00 0.05 0.03 82 1013.3
20260505194149 14 291 0.0 4.8 0.00 0.05 0.03 82 1013.4
20260505193647 14 274 3.2 4.8 0.00 0.05 0.03 82 1013.3
20260505193147 14 224 1.6 6.4 0.00 0.05 0.03 83 1013.3
20260505192648 14 259 3.2 6.4 0.00 0.05 0.03 83 1013.3
20260505192148 14 287 3.2 6.4 0.00 0.05 0.03 83 1013.3
20260505191647 14 287 0.0 4.8 0.00 0.05 0.03 83 1013.3
20260505191150 14 282 3.2 4.8 0.00 0.05 0.03 83 1013.3
20260505190649 14 267 4.8 6.4 0.00 0.05 0.03 84 1013.3
20260505190147 13 288 1.6 6.4 0.00 0.05 0.03 84 1013.2
20260505185648 13 222 0.0 6.4 0.00 0.05 0.03 84 1013.2
20260505185147 13 197 1.6 4.8 0.00 0.05 0.03 84 1013.2
20260505184149 13 243 1.6 4.8 0.00 0.05 0.03 84 1013.2
20260505183647 13 221 1.6 1.6 0.00 0.05 0.03 85 1013.1
20260505183148 13 182 0.0 4.8 0.00 0.05 0.03 85 1013.1
20260505182648 13 196 0.0 4.8 0.00 0.05 0.03 85 1013.0
20260505182147 13 165 0.0 4.8 0.00 0.05 0.03 85 1013.0
20260505181647 13 253 0.0 4.8 0.00 0.05 0.03 85 1012.9
20260505181149 13 186 0.0 4.8 0.00 0.05 0.03 85 1012.9
20260505180647 13 207 1.6 16.1 0.00 0.05 0.03 85 1012.9
20260505180147 13 186 3.2 16.1 0.00 0.05 0.03 85 1012.9
20260505175648 13 168 1.6 16.1 0.00 0.05 0.03 85 1012.9
20260505175146 13 232 9.7 9.7 0.00 0.05 0.03 85 1012.9
20260505174647 13 187 4.8 9.7 0.00 0.05 0.03 85 1012.9
20260505173647 13 247 3.2 9.7 0.00 0.05 0.03 85 1012.9
20260505173148 13 226 0.0 9.7 0.00 0.05 0.03 85 1012.8
20260505172648 13 203 1.6 9.7 0.00 0.05 0.03 86 1012.8
20260505172146 13 254 3.2 6.4 0.00 0.05 0.03 86 1012.6
20260505171647 13 208 0.0 6.4 0.00 0.05 0.03 86 1012.6
20260505171147 13 196 1.6 4.8 0.00 0.05 0.03 86 1012.5
20260505170647 13 205 0.0 4.8 0.00 0.05 0.03 86 1012.4
20260505170147 13 222 0.0 3.2 0.00 0.05 0.03 86 1012.5
20260505165147 13 261 1.6 6.4 0.00 0.05 0.03 86 1012.5
20260505164147 13 243 0.0 6.4 0.00 0.05 0.03 86 1012.5
20260505163648 13 211 3.2 6.4 0.00 0.05 0.03 86 1012.4
20260505163147 13 278 1.6 6.4 0.00 0.05 0.03 86 1012.4
20260505162646 13 166 0.0 6.4 0.00 0.05 0.03 86 1012.3
20260505162147 13 222 1.6 9.7 0.00 0.05 0.03 86 1012.3
20260505161646 13 249 1.6 9.7 0.00 0.05 0.03 86 1012.3
20260505161149 13 243 0.0 9.7 0.00 0.05 0.03 87 1012.2
20260505160647 13 205 1.6 4.8 0.00 0.05 0.03 87 1012.1
20260505160147 13 236 1.6 8.0 0.00 0.05 0.03 87 1012.2
20260505153147 13 155 0.0 1.6 0.00 0.05 0.03 88 1012.1
20260505152147 13 99 0.0 11.3 0.00 0.05 0.03 88 1012.1
20260505151647 12 172 0.0 11.3 0.00 0.05 0.03 88 1012.1
20260505150647 12 186 1.6 4.8 0.00 0.05 0.03 88 1012.1
20260505150147 12 110 0.0 8.0 0.00 0.05 0.03 88 1012.0
20260505140147 12 154 0.0 3.2 0.00 0.05 0.03 88 1011.7
20260505124647 12 133 1.6 4.8 0.00 0.05 0.03 88 1011.1
20260505124149 12 112 0.0 4.8 0.00 0.05 0.03 88 1011.1
20260505123648 12 149 1.6 4.8 0.00 0.05 0.03 88 1011.0
20260505123147 12 148 0.0 6.4 0.00 0.05 0.03 88 1011.0
20260505122648 12 140 0.0 6.4 0.00 0.05 0.03 88 1011.0
20260505122146 12 163 1.6 6.4 0.00 0.05 0.03 88 1011.0
20260505121149 12 105 1.6 4.8 0.00 0.05 0.03 88 1011.0
20260505120147 12 77 1.6 4.8 0.00 0.05 0.03 88 1011.0
20260505115648 12 95 0.0 6.4 0.00 0.05 0.03 88 1011.0
20260505115147 12 117 3.2 6.4 0.00 0.05 0.03 88 1011.0
20260505114149 12 103 1.6 4.8 0.00 0.05 0.03 88 1011.0
20260505113147 12 205 1.6 8.0 0.00 0.05 0.03 88 1011.0
20260505112648 12 170 3.2 8.0 0.00 0.05 0.03 88 1011.0
20260505112147 12 98 3.2 6.4 0.00 0.05 0.03 88 1011.0
20260505111647 12 107 1.6 3.2 0.00 0.05 0.03 88 1011.0
20260505111150 12 169 0.0 9.7 0.00 0.05 0.03 88 1011.0
20260505110647 12 138 1.6 9.7 0.00 0.05 0.03 88 1010.9
20260505110148 12 179 3.2 9.7 0.00 0.05 0.03 88 1010.9
20260505102147 12 218 6.4 11.3 0.00 0.05 0.03 88 1010.9
20260505100147 12 205 4.8 12.9 0.00 0.05 0.03 88 1010.9
20260505095648 12 190 3.2 12.9 0.00 0.05 0.03 88 1010.8
20260505094647 12 142 6.4 16.1 0.00 0.05 0.03 88 1010.9
20260505094149 12 163 3.2 16.1 0.00 0.05 0.03 88 1010.9
20260505093647 12 200 1.6 16.1 0.00 0.05 0.03 88 1010.9
20260505093147 12 212 1.6 11.3 0.03 0.05 0.03 88 1010.8
20260505092648 12 183 6.4 9.7 0.03 0.05 0.03 88 1010.8
20260505091647 12 203 0.0 6.4 0.03 0.05 0.03 88 1010.8
20260505091149 12 233 3.2 6.4 0.03 0.05 0.03 88 1010.8
20260505090647 12 165 1.6 6.4 0.03 0.05 0.03 88 1010.8
20260505090148 12 158 0.0 3.2 0.03 0.03 0.03 88 1010.8
20260505084647 12 228 0.0 8.0 0.03 0.03 0.03 88 1010.7
20260505084149 12 135 0.0 3.2 0.03 0.03 0.03 88 1010.7
20260505083647 12 161 0.0 9.7 0.03 0.03 0.03 88 1010.7
20260505083147 12 201 1.6 9.7 0.00 0.03 0.03 88 1010.7
20260505082648 12 215 4.8 9.7 0.00 0.03 0.00 88 1010.7
20260505082146 12 225 4.8 8.0 0.00 0.03 0.00 88 1010.7
20260505081649 12 200 3.2 6.4 0.00 0.03 0.00 88 1010.6
20260505081149 12 259 4.8 4.8 0.00 0.03 0.00 88 1010.6
20260505080147 12 196 1.6 6.4 0.00 0.03 0.00 88 1010.5
20260505075648 12 191 3.2 6.4 0.00 0.03 0.00 88 1010.6
20260505075147 12 135 1.6 6.4 0.00 0.03 0.00 88 1010.5
20260505074647 12 133 0.0 11.3 0.00 0.03 0.00 88 1010.5
20260505074150 12 182 3.2 11.3 0.00 0.03 0.00 88 1010.5
20260505073647 12 214 0.0 11.3 0.00 0.03 0.00 88 1010.5
20260505072648 12 184 3.2 24.1 0.00 0.03 0.00 88 1010.5
20260505072147 12 180 4.8 24.1 0.00 0.03 0.00 88 1010.4
20260505071647 12 179 4.8 24.1 0.00 0.03 0.00 88 1010.4
20260505071149 12 172 9.7 14.5 0.00 0.03 0.00 87 1010.4
20260505070647 12 177 3.2 12.9 0.00 0.03 0.00 88 1010.4
20260505070147 12 191 6.4 12.9 0.00 0.03 0.00 88 1010.5
20260505065648 12 198 6.4 12.9 0.00 0.03 0.03 87 1010.5
20260505065147 12 201 4.8 8.0 0.00 0.03 0.03 87 1010.5
20260505064647 12 168 3.2 8.0 0.00 0.03 0.03 87 1010.5
20260505064149 12 186 3.2 9.7 0.03 0.03 0.03 87 1010.6
20260505063647 12 250 4.8 9.7 0.03 0.03 0.03 87 1010.6
20260505062649 12 161 4.8 11.3 0.03 0.03 0.03 87 1010.6
20260505062147 12 166 3.2 11.3 0.03 0.03 0.03 87 1010.5
20260505061647 12 182 3.2 11.3 0.03 0.03 0.03 87 1010.5
20260505060647 12 194 3.2 9.7 0.03 0.03 0.03 87 1010.6
20260505060147 12 179 4.8 9.7 0.03 0.03 0.03 87 1010.6
20260505055647 13 212 3.2 9.7 0.03 0.03 0.03 87 1010.6
20260505055147 12 170 0.0 6.4 0.03 0.03 0.03 87 1010.6
20260505054646 12 197 3.2 6.4 0.03 0.03 0.03 87 1010.6
20260505054148 12 179 0.0 6.4 0.00 0.03 0.03 87 1010.6
20260505053647 12 169 0.0 1.6 0.00 0.00 0.00 87 1010.6
20260505053147 12 0 0.0 11.3 0.00 0.00 0.00 87 1010.5
20260505051646 12 138 6.4 12.9 0.00 0.00 0.00 87 1010.7
20260505051149 12 186 4.8 12.9 0.00 0.00 0.00 87 1010.7
20260505050651 12 172 6.4 12.9 0.00 0.00 0.00 87 1010.7
20260505050147 12 233 4.8 12.9 0.00 0.00 0.00 87 1010.7
20260505041647 13 172 1.6 12.9 0.00 0.00 0.00 86 1010.3
20260505041150 13 253 4.8 14.5 0.00 0.00 0.00 86 1010.3
20260505040646 13 215 8.0 14.5 0.00 0.00 0.00 85 1010.3
20260505040146 13 239 8.0 14.5 0.00 0.00 0.00 85 1010.2
20260505035647 13 189 8.0 14.5 0.00 0.00 0.00 85 1010.2
20260505035146 13 189 6.4 14.5 0.00 0.00 0.00 85 1010.1
20260505034646 13 201 4.8 12.9 0.00 0.00 0.00 85 1010.1
20260505034147 13 200 6.4 12.9 0.00 0.00 0.00 85 1010.0
20260505033647 13 256 4.8 12.9 0.00 0.00 0.00 85 1009.9
20260505033146 13 173 0.0 12.9 0.00 0.00 0.00 85 1009.8
20260505032650 13 154 6.4 12.9 0.00 0.00 0.00 84 1009.8
20260505032146 13 221 1.6 9.7 0.00 0.00 0.00 84 1009.8